| time (UTC) | temp F | wind direction | speed MPH | gust MPH | rain 1hr in | rain 24hr in | rain mn in | humidity % | barometer mb |
| 20260902080754 | 70 | 234 | 0.0 | 0.0 | 0.00 | 0.19 | 0.00 | 76 | 1017.4 |
| 20260902080448 | 70 | 234 | 0.0 | 0.0 | 0.00 | 0.19 | 0.00 | 76 | 1017.4 |
| 20260902080138 | 70 | 234 | 0.0 | 0.0 | 0.00 | 0.19 | 0.00 | 76 | 1017.4 |
| 20260902075413 | 70 | 246 | 0.0 | 0.0 | 0.00 | 0.19 | 0.00 | 75 | 1017.4 |
| 20260902075116 | 70 | 251 | 0.0 | 0.0 | 0.00 | 0.19 | 0.00 | 75 | 1017.5 |
| 20260902074813 | 70 | 248 | 0.0 | 0.0 | 0.00 | 0.19 | 0.00 | 75 | 1017.5 |
| 20260902074516 | 70 | 194 | 0.0 | 0.0 | 0.00 | 0.19 | 0.00 | 75 | 1017.4 |
| 20260902074215 | 70 | 194 | 0.0 | 0.0 | 0.00 | 0.19 | 0.00 | 75 | 1017.4 |
| 20260902073915 | 70 | 194 | 0.0 | 0.0 | 0.00 | 0.19 | 0.00 | 75 | 1017.4 |
| 20260902073606 | 70 | 194 | 0.0 | 0.0 | 0.00 | 0.19 | 0.00 | 75 | 1017.3 |
| 20260902073257 | 70 | 194 | 0.0 | 1.0 | 0.00 | 0.19 | 0.00 | 75 | 1017.3 |
| 20260902072953 | 70 | 194 | 0.0 | 1.0 | 0.00 | 0.19 | 0.00 | 75 | 1017.4 |
| 20260902072645 | 70 | 194 | 0.0 | 1.0 | 0.00 | 0.19 | 0.00 | 75 | 1017.4 |
| 20260902072346 | 70 | 196 | 0.0 | 1.0 | 0.00 | 0.19 | 0.00 | 75 | 1017.4 |
| 20260902071203 | 70 | 119 | 0.0 | 0.0 | 0.00 | 0.19 | 0.00 | 75 | 1017.3 |
| 20260902070856 | 71 | 119 | 0.0 | 0.0 | 0.00 | 0.19 | 0.00 | 75 | 1017.4 |
| 20260902070135 | 70 | 119 | 0.0 | 0.0 | 0.00 | 0.19 | 0.00 | 75 | 1017.5 |
| 20260902065822 | 70 | 119 | 0.0 | 0.0 | 0.00 | 0.19 | 0.00 | 74 | 1017.5 |
| 20260902065510 | 71 | 119 | 0.0 | 1.0 | 0.00 | 0.19 | 0.00 | 74 | 1017.5 |
| 20260902064756 | 71 | 120 | 0.0 | 0.0 | 0.00 | 0.19 | 0.00 | 74 | 1017.4 |
| 20260902064444 | 71 | 119 | 0.0 | 0.0 | 0.00 | 0.19 | 0.00 | 74 | 1017.3 |
| 20260902064141 | 71 | 119 | 0.0 | 0.0 | 0.00 | 0.19 | 0.00 | 74 | 1017.4 |
| 20260902063837 | 71 | 119 | 0.0 | 0.0 | 0.00 | 0.19 | 0.00 | 74 | 1017.4 |
| 20260902063536 | 71 | 119 | 0.0 | 0.0 | 0.00 | 0.19 | 0.00 | 74 | 1017.3 |
| 20260902063230 | 71 | 119 | 0.0 | 1.0 | 0.00 | 0.19 | 0.00 | 74 | 1017.4 |
| 20260902062932 | 71 | 150 | 0.0 | 0.0 | 0.00 | 0.19 | 0.00 | 73 | 1017.5 |
| 20260902062630 | 71 | 244 | 0.0 | 0.0 | 0.00 | 0.19 | 0.00 | 73 | 1017.3 |
| 20260902062332 | 71 | 244 | 0.0 | 0.0 | 0.00 | 0.19 | 0.00 | 73 | 1017.4 |
| 20260902062021 | 71 | 244 | 0.0 | 0.0 | 0.00 | 0.19 | 0.00 | 73 | 1017.3 |
| 20260902061241 | 71 | 244 | 0.0 | 0.0 | 0.00 | 0.19 | 0.00 | 73 | 1017.3 |
| 20260902060936 | 71 | 244 | 0.0 | 0.0 | 0.00 | 0.19 | 0.00 | 73 | 1017.3 |
| 20260902060630 | 71 | 244 | 0.0 | 1.0 | 0.00 | 0.19 | 0.00 | 73 | 1017.3 |
| 20260902060322 | 71 | 290 | 0.0 | 0.0 | 0.00 | 0.19 | 0.00 | 73 | 1017.3 |
| 20260902060024 | 71 | 313 | 0.0 | 0.0 | 0.00 | 0.19 | 0.00 | 73 | 1017.3 |
| 20260902055722 | 71 | 313 | 0.0 | 0.0 | 0.00 | 0.19 | 0.00 | 73 | 1017.3 |
| 20260902055417 | 71 | 217 | 0.0 | 0.0 | 0.00 | 0.19 | 0.00 | 72 | 1017.3 |
| 20260902055120 | 71 | 194 | 0.0 | 1.0 | 0.00 | 0.19 | 0.00 | 72 | 1017.4 |
| 20260902054815 | 71 | 286 | 0.0 | 1.0 | 0.00 | 0.19 | 0.00 | 72 | 1017.3 |
| 20260902054518 | 71 | 321 | 0.0 | 0.0 | 0.00 | 0.19 | 0.00 | 72 | 1017.3 |
| 20260902054220 | 71 | 300 | 0.0 | 0.0 | 0.00 | 0.19 | 0.00 | 72 | 1017.4 |
| 20260902053909 | 71 | 288 | 0.0 | 0.0 | 0.00 | 0.19 | 0.00 | 72 | 1017.2 |
| 20260902053600 | 71 | 288 | 0.0 | 3.0 | 0.00 | 0.19 | 0.00 | 72 | 1017.2 |
| 20260902053247 | 71 | 294 | 0.0 | 3.0 | 0.00 | 0.19 | 0.00 | 72 | 1017.3 |
| 20260902052940 | 71 | 305 | 0.0 | 3.0 | 0.00 | 0.19 | 0.00 | 71 | 1017.4 |
| 20260902052630 | 71 | 287 | 0.0 | 3.0 | 0.00 | 0.19 | 0.00 | 71 | 1017.4 |
| 20260902051856 | 71 | 250 | 0.0 | 3.0 | 0.00 | 0.19 | 0.00 | 71 | 1017.3 |
| 20260902051552 | 71 | 292 | 0.0 | 3.0 | 0.00 | 0.19 | 0.00 | 71 | 1017.5 |
| 20260902050358 | 72 | 274 | 1.0 | 5.0 | 0.00 | 0.19 | 0.00 | 70 | 1017.5 |
| 20260902050050 | 72 | 318 | 0.0 | 5.0 | 0.00 | 0.19 | 0.00 | 70 | 1017.5 |
| 20260902045749 | 72 | 297 | 1.0 | 5.0 | 0.00 | 0.19 | 0.00 | 69 | 1017.5 |
| 20260902045444 | 72 | 256 | 0.0 | 5.0 | 0.00 | 0.19 | 0.00 | 69 | 1017.4 |
| 20260902045136 | 72 | 302 | 0.0 | 5.0 | 0.00 | 0.19 | 0.00 | 69 | 1017.3 |
| 20260902044831 | 72 | 269 | 0.0 | 3.0 | 0.00 | 0.19 | 0.00 | 68 | 1017.4 |
| 20260902044518 | 72 | 319 | 0.0 | 2.0 | 0.00 | 0.19 | 0.00 | 68 | 1017.3 |
| 20260902044220 | 72 | 296 | 0.0 | 0.0 | 0.00 | 0.19 | 0.00 | 68 | 1017.3 |
| 20260902043913 | 72 | 271 | 0.0 | 1.0 | 0.00 | 0.19 | 0.00 | 68 | 1017.2 |
| 20260902043615 | 72 | 322 | 0.0 | 3.0 | 0.00 | 0.19 | 0.00 | 68 | 1017.1 |
| 20260902043308 | 72 | 248 | 0.0 | 3.0 | 0.00 | 0.19 | 0.00 | 68 | 1017.1 |
| 20260902043002 | 72 | 268 | 0.0 | 3.0 | 0.00 | 0.19 | 0.00 | 68 | 1017.2 |
| 20260902042701 | 72 | 302 | 0.0 | 2.0 | 0.00 | 0.19 | 0.00 | 67 | 1017.4 |
| 20260902042349 | 72 | 350 | 0.0 | 2.0 | 0.00 | 0.19 | 0.00 | 67 | 1017.2 |
| 20260902042053 | 72 | 227 | 0.0 | 1.0 | 0.00 | 0.19 | 0.00 | 67 | 1017.1 |
| 20260902041751 | 72 | 296 | 0.0 | 1.0 | 0.00 | 0.19 | 0.00 | 67 | 1017.1 |
| 20260902041038 | 72 | 335 | 0.0 | 3.0 | 0.00 | 0.19 | 0.00 | 67 | 1017.1 |
| 20260902040727 | 72 | 15 | 1.0 | 3.0 | 0.00 | 0.19 | 0.00 | 66 | 1017.1 |
| 20260902040425 | 72 | 294 | 0.0 | 3.0 | 0.00 | 0.19 | 0.00 | 66 | 1016.9 |
| 20260902040123 | 72 | 190 | 0.0 | 2.0 | 0.00 | 0.19 | 0.00 | 66 | 1017.1 |
| 20260902035814 | 72 | 270 | 0.0 | 1.0 | 0.00 | 0.19 | 0.20 | 66 | 1017.1 |
| 20260902035516 | 73 | 270 | 0.0 | 1.0 | 0.00 | 0.19 | 0.20 | 66 | 1017.3 |
| 20260902035209 | 73 | 274 | 0.0 | 1.0 | 0.00 | 0.19 | 0.19 | 66 | 1017.4 |
| 20260902034907 | 73 | 78 | 0.0 | 0.0 | 0.00 | 0.19 | 0.19 | 65 | 1017.5 |
| 20260902034556 | 73 | 103 | 0.0 | 4.0 | 0.00 | 0.19 | 0.19 | 65 | 1017.7 |
| 20260902033822 | 73 | 254 | 1.0 | 4.0 | 0.00 | 0.19 | 0.19 | 65 | 1017.5 |
| 20260902033523 | 73 | 202 | 1.0 | 13.0 | 0.04 | 0.19 | 0.19 | 65 | 1017.5 |
| 20260902033225 | 73 | 219 | 1.0 | 13.0 | 0.05 | 0.19 | 0.19 | 65 | 1017.4 |
| 20260902032928 | 73 | 180 | 1.0 | 13.0 | 0.06 | 0.19 | 0.19 | 64 | 1017.4 |
| 20260902032625 | 73 | 162 | 2.0 | 13.0 | 0.10 | 0.19 | 0.19 | 64 | 1017.5 |
| 20260902032318 | 74 | 76 | 3.0 | 17.0 | 0.23 | 0.19 | 0.19 | 64 | 1017.5 |
| 20260902032012 | 74 | 66 | 4.0 | 17.0 | 1.42 | 0.13 | 0.17 | 64 | 1017.6 |
| 20260902031710 | 74 | 88 | 3.0 | 17.0 | 0.48 | 0.09 | 0.10 | 63 | 1017.9 |
| 20260902031401 | 75 | 39 | 3.0 | 17.0 | 0.97 | 0.06 | 0.09 | 63 | 1018.2 |
| 20260902030646 | 76 | 73 | 5.0 | 17.0 | 0.00 | 0.00 | 0.00 | 63 | 1018.5 |
| 20260902030339 | 76 | 266 | 4.0 | 13.0 | 0.00 | 0.00 | 0.00 | 62 | 1018.3 |
| 20260902025602 | 77 | 133 | 3.0 | 10.0 | 0.00 | 0.00 | 0.00 | 62 | 1018.0 |
| 20260902025301 | 77 | 14 | 3.0 | 10.0 | 0.00 | 0.00 | 0.00 | 62 | 1018.2 |
| 20260902024528 | 77 | 71 | 2.0 | 10.0 | 0.00 | 0.00 | 0.00 | 61 | 1017.6 |
| 20260902024225 | 77 | 11 | 3.0 | 10.0 | 0.00 | 0.00 | 0.00 | 61 | 1017.5 |
| 20260902023914 | 77 | 15 | 3.0 | 10.0 | 0.00 | 0.00 | 0.00 | 60 | 1017.1 |
| 20260902023608 | 78 | 19 | 4.0 | 10.0 | 0.00 | 0.00 | 0.00 | 60 | 1016.8 |
| 20260902023311 | 78 | 109 | 4.0 | 10.0 | 0.00 | 0.00 | 0.00 | 60 | 1016.6 |
| 20260902023012 | 78 | 75 | 3.0 | 10.0 | 0.00 | 0.00 | 0.00 | 59 | 1016.6 |
| 20260902022704 | 78 | 57 | 2.0 | 10.0 | 0.00 | 0.00 | 0.00 | 59 | 1016.4 |
| 20260902021945 | 79 | 90 | 3.0 | 10.0 | 0.00 | 0.00 | 0.00 | 58 | 1016.3 |
| 20260902021225 | 79 | 289 | 3.0 | 10.0 | 0.00 | 0.00 | 0.00 | 57 | 1016.1 |
| 20260902020918 | 80 | 88 | 3.0 | 9.0 | 0.00 | 0.00 | 0.00 | 58 | 1016.1 |
| 20260902020151 | 80 | 59 | 4.0 | 17.0 | 0.00 | 0.00 | 0.00 | 57 | 1015.9 |
| 20260902015852 | 80 | 62 | 4.0 | 17.0 | 0.00 | 0.00 | 0.00 | 57 | 1015.8 |
| 20260902015542 | 80 | 60 | 5.0 | 17.0 | 0.00 | 0.00 | 0.00 | 57 | 1016.0 |
| 20260902015229 | 81 | 9 | 5.0 | 17.0 | 0.00 | 0.00 | 0.00 | 56 | 1015.9 |
| 20260902014930 | 81 | 124 | 5.0 | 17.0 | 0.00 | 0.00 | 0.00 | 56 | 1015.9 |
| 20260902014631 | 81 | 95 | 4.0 | 12.0 | 0.00 | 0.00 | 0.00 | 57 | 1016.0 |
| 20260902013901 | 82 | 9 | 0.0 | 7.0 | 0.00 | 0.00 | 0.00 | 62 | 1015.5 |
| 20260902013605 | 82 | 77 | 0.0 | 3.0 | 0.00 | 0.00 | 0.00 | 62 | 1015.2 |
| 20260902013306 | 82 | 53 | 0.0 | 0.0 | 0.00 | 0.00 | 0.00 | 62 | 1014.8 |
| 20260902012956 | 82 | 217 | 0.0 | 0.0 | 0.00 | 0.00 | 0.00 | 61 | 1014.7 |
| 20260902012649 | 82 | 209 | 0.0 | 0.0 | 0.00 | 0.00 | 0.00 | 61 | 1014.7 |
| 20260902012343 | 82 | 209 | 0.0 | 0.0 | 0.00 | 0.00 | 0.00 | 61 | 1014.8 |
| 20260902012044 | 82 | 209 | 0.0 | 0.0 | 0.00 | 0.00 | 0.00 | 61 | 1014.8 |
| 20260902011738 | 82 | 209 | 0.0 | 0.0 | 0.00 | 0.00 | 0.00 | 61 | 1014.8 |
| 20260902011434 | 82 | 209 | 0.0 | 1.0 | 0.00 | 0.00 | 0.00 | 61 | 1014.8 |
| 20260902011123 | 82 | 209 | 0.0 | 1.0 | 0.00 | 0.00 | 0.00 | 61 | 1014.9 |
| 20260902010351 | 82 | 209 | 0.0 | 0.0 | 0.00 | 0.00 | 0.00 | 61 | 1015.1 |
| 20260902010042 | 82 | 209 | 0.0 | 0.0 | 0.00 | 0.00 | 0.00 | 61 | 1015.0 |
| 20260902005745 | 83 | 209 | 0.0 | 0.0 | 0.00 | 0.00 | 0.00 | 61 | 1015.1 |
| 20260902005444 | 83 | 209 | 0.0 | 0.0 | 0.00 | 0.00 | 0.00 | 61 | 1015.1 |
| 20260902005139 | 83 | 209 | 0.0 | 0.0 | 0.00 | 0.00 | 0.00 | 61 | 1015.0 |
| 20260902004837 | 83 | 209 | 0.0 | 0.0 | 0.00 | 0.00 | 0.00 | 60 | 1014.9 |
| 20260902004528 | 83 | 209 | 0.0 | 0.0 | 0.00 | 0.00 | 0.00 | 60 | 1014.8 |
| 20260902004226 | 83 | 209 | 0.0 | 0.0 | 0.00 | 0.00 | 0.00 | 60 | 1014.7 |
| 20260902003919 | 83 | 209 | 0.0 | 0.0 | 0.00 | 0.00 | 0.00 | 59 | 1014.6 |
| 20260902003610 | 83 | 209 | 0.0 | 0.0 | 0.00 | 0.00 | 0.00 | 59 | 1014.4 |
| 20260902003308 | 83 | 209 | 0.0 | 0.0 | 0.00 | 0.00 | 0.00 | 59 | 1014.3 |
| 20260902002954 | 83 | 209 | 0.0 | 0.0 | 0.00 | 0.00 | 0.00 | 59 | 1014.1 |
| 20260902002654 | 84 | 209 | 0.0 | 0.0 | 0.00 | 0.00 | 0.00 | 59 | 1014.2 |
| 20260902002357 | 84 | 209 | 0.0 | 0.0 | 0.00 | 0.00 | 0.00 | 59 | 1014.1 |
| 20260902002100 | 84 | 209 | 0.0 | 0.0 | 0.00 | 0.00 | 0.00 | 58 | 1013.9 |
| 20260902001747 | 84 | 209 | 0.0 | 0.0 | 0.00 | 0.00 | 0.00 | 58 | 1013.8 |
| 20260902001437 | 84 | 209 | 0.0 | 0.0 | 0.00 | 0.00 | 0.00 | 58 | 1013.8 |
| 20260902001131 | 84 | 209 | 0.0 | 0.0 | 0.00 | 0.00 | 0.00 | 58 | 1013.9 |
| 20260901235538 | 86 | 209 | 0.0 | 0.0 | 0.00 | 0.00 | 0.00 | 56 | 1013.7 |
| 20260901234816 | 86 | 209 | 0.0 | 0.0 | 0.00 | 0.00 | 0.00 | 56 | 1013.5 |
| 20260901234506 | 86 | 209 | 0.0 | 0.0 | 0.00 | 0.00 | 0.00 | 55 | 1013.6 |
| 20260901234154 | 87 | 209 | 0.0 | 0.0 | 0.00 | 0.00 | 0.00 | 55 | 1013.6 |
| 20260901233003 | 87 | 209 | 0.0 | 0.0 | 0.00 | 0.00 | 0.00 | 54 | 1013.5 |
| 20260901232652 | 88 | 209 | 0.0 | 0.0 | 0.00 | 0.00 | 0.00 | 54 | 1013.5 |
| 20260901232349 | 88 | 209 | 0.0 | 0.0 | 0.00 | 0.00 | 0.00 | 53 | 1013.5 |
| 20260901232040 | 88 | 209 | 0.0 | 0.0 | 0.00 | 0.00 | 0.00 | 53 | 1013.6 |
| 20260901231732 | 88 | 98 | 0.0 | 0.0 | 0.00 | 0.00 | 0.00 | 52 | 1013.5 |
| 20260901231429 | 88 | 171 | 0.0 | 0.0 | 0.00 | 0.00 | 0.00 | 52 | 1013.5 |
| 20260901231132 | 88 | 172 | 0.0 | 1.0 | 0.00 | 0.00 | 0.00 | 52 | 1013.5 |
| 20260901230833 | 89 | 144 | 0.0 | 0.0 | 0.00 | 0.00 | 0.00 | 52 | 1013.5 |
| 20260901230519 | 89 | 258 | 0.0 | 0.0 | 0.00 | 0.00 | 0.00 | 51 | 1013.5 |
| 20260901230219 | 89 | 243 | 0.0 | 2.0 | 0.00 | 0.00 | 0.00 | 51 | 1013.5 |
| 20260901225911 | 89 | 247 | 0.0 | 2.0 | 0.00 | 0.00 | 0.00 | 51 | 1013.5 |
| 20260901225150 | 89 | 243 | 0.0 | 3.0 | 0.00 | 0.00 | 0.00 | 50 | 1013.5 |
| 20260901224840 | 89 | 252 | 0.0 | 3.0 | 0.00 | 0.00 | 0.00 | 50 | 1013.6 |
| 20260901224535 | 89 | 221 | 0.0 | 3.0 | 0.00 | 0.00 | 0.00 | 51 | 1013.5 |
| 20260901224222 | 89 | 215 | 0.0 | 3.0 | 0.00 | 0.00 | 0.00 | 50 | 1013.6 |
| 20260901223923 | 90 | 194 | 0.0 | 3.0 | 0.00 | 0.00 | 0.00 | 50 | 1013.6 |
| 20260901223616 | 90 | 178 | 0.0 | 3.0 | 0.00 | 0.00 | 0.00 | 50 | 1013.5 |
| 20260901223309 | 90 | 282 | 0.0 | 2.0 | 0.00 | 0.00 | 0.00 | 51 | 1013.4 |
| 20260901223009 | 90 | 202 | 0.0 | 0.0 | 0.00 | 0.00 | 0.00 | 50 | 1013.4 |
| 20260901222704 | 90 | 261 | 0.0 | 2.0 | 0.00 | 0.00 | 0.00 | 50 | 1013.5 |
| 20260901222403 | 90 | 287 | 0.0 | 1.0 | 0.00 | 0.00 | 0.00 | 50 | 1013.6 |
| 20260901222057 | 90 | 276 | 0.0 | 1.0 | 0.00 | 0.00 | 0.00 | 50 | 1013.5 |
| 20260901221326 | 90 | 240 | 1.0 | 7.0 | 0.00 | 0.00 | 0.00 | 49 | 1013.3 |
| 20260901221021 | 90 | 117 | 1.0 | 7.0 | 0.00 | 0.00 | 0.00 | 48 | 1013.4 |
| 20260901220708 | 91 | 192 | 1.0 | 7.0 | 0.00 | 0.00 | 0.00 | 48 | 1013.3 |
| 20260901220355 | 91 | 294 | 1.0 | 6.0 | 0.00 | 0.00 | 0.00 | 48 | 1013.2 |
| 20260901220059 | 91 | 298 | 1.0 | 6.0 | 0.00 | 0.00 | 0.00 | 48 | 1013.3 |
| 20260901215349 | 91 | 314 | 1.0 | 6.0 | 0.00 | 0.00 | 0.00 | 48 | 1013.3 |
| 20260901215040 | 91 | 290 | 1.0 | 6.0 | 0.00 | 0.00 | 0.00 | 48 | 1013.2 |
| 20260901214738 | 91 | 290 | 1.0 | 6.0 | 0.00 | 0.00 | 0.00 | 47 | 1013.4 |
| 20260901214440 | 91 | 324 | 1.0 | 6.0 | 0.00 | 0.00 | 0.00 | 47 | 1013.4 |
| 20260901214137 | 91 | 217 | 1.0 | 6.0 | 0.00 | 0.00 | 0.00 | 47 | 1013.5 |
| 20260901213832 | 91 | 307 | 1.0 | 5.0 | 0.00 | 0.00 | 0.00 | 47 | 1013.4 |
| 20260901213527 | 91 | 227 | 1.0 | 5.0 | 0.00 | 0.00 | 0.00 | 46 | 1013.4 |
| 20260901213218 | 91 | 248 | 1.0 | 5.0 | 0.00 | 0.00 | 0.00 | 46 | 1013.5 |
| 20260901212908 | 91 | 269 | 1.0 | 5.0 | 0.00 | 0.00 | 0.00 | 46 | 1013.4 |
| 20260901212557 | 92 | 309 | 1.0 | 5.0 | 0.00 | 0.00 | 0.00 | 46 | 1013.4 |
| 20260901212247 | 92 | 240 | 2.0 | 5.0 | 0.00 | 0.00 | 0.00 | 45 | 1013.4 |
| 20260901211939 | 92 | 235 | 1.0 | 4.0 | 0.00 | 0.00 | 0.00 | 45 | 1013.4 |
| 20260901211639 | 92 | 325 | 1.0 | 7.0 | 0.00 | 0.00 | 0.00 | 45 | 1013.4 |
| 20260901211339 | 92 | 217 | 1.0 | 7.0 | 0.00 | 0.00 | 0.00 | 45 | 1013.4 |
| 20260901211042 | 92 | 299 | 1.0 | 7.0 | 0.00 | 0.00 | 0.00 | 45 | 1013.4 |
| 20260901210744 | 93 | 272 | 1.0 | 10.0 | 0.00 | 0.00 | 0.00 | 46 | 1013.4 |
| 20260901210441 | 93 | 219 | 2.0 | 10.0 | 0.00 | 0.00 | 0.00 | 44 | 1013.3 |
| 20260901210138 | 93 | 309 | 2.0 | 10.0 | 0.00 | 0.00 | 0.00 | 43 | 1013.4 |
| 20260901205415 | 93 | 304 | 3.0 | 10.0 | 0.00 | 0.00 | 0.00 | 43 | 1013.6 |
| 20260901205107 | 93 | 246 | 3.0 | 10.0 | 0.00 | 0.00 | 0.00 | 42 | 1013.5 |
| 20260901204805 | 94 | 0 | 3.0 | 9.0 | 0.00 | 0.00 | 0.00 | 43 | 1013.5 |
| 20260901204458 | 94 | 152 | 3.0 | 9.0 | 0.00 | 0.00 | 0.00 | 42 | 1013.5 |
| 20260901204158 | 94 | 272 | 3.0 | 9.0 | 0.00 | 0.00 | 0.00 | 43 | 1013.4 |
| 20260901203844 | 94 | 279 | 2.0 | 9.0 | 0.00 | 0.00 | 0.00 | 42 | 1013.5 |
| 20260901203548 | 94 | 281 | 2.0 | 7.0 | 0.00 | 0.00 | 0.00 | 44 | 1013.7 |
| 20260901203236 | 94 | 234 | 2.0 | 7.0 | 0.00 | 0.00 | 0.00 | 44 | 1013.6 |
| 20260901202923 | 94 | 308 | 2.0 | 7.0 | 0.00 | 0.00 | 0.00 | 44 | 1013.5 |
| 20260901202617 | 94 | 265 | 2.0 | 7.0 | 0.00 | 0.00 | 0.00 | 44 | 1013.5 |
| 20260901202308 | 94 | 290 | 2.0 | 10.0 | 0.00 | 0.00 | 0.00 | 46 | 1013.6 |
| 20260901202010 | 94 | 165 | 2.0 | 10.0 | 0.00 | 0.00 | 0.00 | 45 | 1013.7 |
| 20260901201702 | 93 | 308 | 2.0 | 10.0 | 0.00 | 0.00 | 0.00 | 44 | 1013.6 |
| 20260901201349 | 93 | 23 | 3.0 | 10.0 | 0.00 | 0.00 | 0.00 | 45 | 1013.7 |
| 20260901201047 | 93 | 279 | 3.0 | 10.0 | 0.00 | 0.00 | 0.00 | 45 | 1013.7 |
| 20260901200744 | 93 | 306 | 3.0 | 10.0 | 0.00 | 0.00 | 0.00 | 45 | 1013.8 |
| 20260901200447 | 93 | 288 | 2.0 | 8.0 | 0.00 | 0.00 | 0.00 | 46 | 1013.7 |
| 20260901200149 | 93 | 329 | 2.0 | 8.0 | 0.00 | 0.00 | 0.00 | 47 | 1013.8 |
| 20260901195838 | 93 | 277 | 2.0 | 8.0 | 0.00 | 0.00 | 0.00 | 46 | 1013.9 |
| 20260901195532 | 93 | 147 | 2.0 | 9.0 | 0.00 | 0.00 | 0.00 | 45 | 1013.9 |
| 20260901195229 | 93 | 273 | 2.0 | 9.0 | 0.00 | 0.00 | 0.00 | 45 | 1013.9 |
| 20260901194921 | 94 | 230 | 2.0 | 9.0 | 0.00 | 0.00 | 0.00 | 46 | 1013.9 |
| 20260901194156 | 94 | 248 | 2.0 | 9.0 | 0.00 | 0.00 | 0.00 | 47 | 1014.1 |
| 20260901193844 | 94 | 335 | 3.0 | 9.0 | 0.00 | 0.00 | 0.00 | 46 | 1014.1 |
| 20260901193542 | 94 | 175 | 3.0 | 9.0 | 0.00 | 0.00 | 0.00 | 47 | 1014.1 |
| 20260901193243 | 94 | 311 | 3.0 | 9.0 | 0.00 | 0.00 | 0.00 | 47 | 1014.1 |
| 20260901192935 | 94 | 0 | 3.0 | 9.0 | 0.00 | 0.00 | 0.00 | 46 | 1014.2 |
| 20260901192627 | 94 | 248 | 3.0 | 9.0 | 0.00 | 0.00 | 0.00 | 46 | 1014.2 |
| 20260901192314 | 94 | 288 | 3.0 | 9.0 | 0.00 | 0.00 | 0.00 | 47 | 1014.2 |
| 20260901191543 | 94 | 202 | 3.0 | 10.0 | 0.00 | 0.00 | 0.00 | 48 | 1014.2 |
| 20260901190829 | 94 | 355 | 4.0 | 10.0 | 0.00 | 0.00 | 0.00 | 48 | 1014.2 |
| 20260901190517 | 94 | 213 | 5.0 | 10.0 | 0.00 | 0.00 | 0.00 | 48 | 1014.2 |
| 20260901190209 | 94 | 276 | 4.0 | 10.0 | 0.00 | 0.00 | 0.00 | 49 | 1014.2 |
| 20260901185444 | 93 | 325 | 3.0 | 12.0 | 0.00 | 0.00 | 0.00 | 49 | 1014.4 |
| 20260901185131 | 93 | 188 | 3.0 | 12.0 | 0.00 | 0.00 | 0.00 | 51 | 1014.5 |
| 20260901184821 | 93 | 159 | 4.0 | 12.0 | 0.00 | 0.00 | 0.00 | 49 | 1014.5 |
| 20260901184514 | 93 | 295 | 4.0 | 12.0 | 0.00 | 0.00 | 0.00 | 49 | 1014.7 |
| 20260901184210 | 93 | 350 | 4.0 | 12.0 | 0.00 | 0.00 | 0.00 | 48 | 1014.7 |
| 20260901183443 | 93 | 288 | 3.0 | 9.0 | 0.00 | 0.00 | 0.00 | 51 | 1014.8 |
| 20260901183136 | 93 | 235 | 3.0 | 8.0 | 0.00 | 0.00 | 0.00 | 50 | 1014.8 |
| 20260901182839 | 93 | 313 | 2.0 | 8.0 | 0.00 | 0.00 | 0.00 | 51 | 1014.8 |
| 20260901182528 | 93 | 195 | 3.0 | 8.0 | 0.00 | 0.00 | 0.00 | 50 | 1014.9 |
| 20260901182220 | 93 | 337 | 3.0 | 8.0 | 0.00 | 0.00 | 0.00 | 51 | 1014.8 |
| 20260901181920 | 92 | 269 | 3.0 | 8.0 | 0.00 | 0.00 | 0.00 | 50 | 1014.8 |
| 20260901181606 | 92 | 215 | 4.0 | 10.0 | 0.00 | 0.00 | 0.00 | 52 | 1015.0 |
| 20260901180832 | 92 | 174 | 4.0 | 10.0 | 0.00 | 0.00 | 0.00 | 52 | 1015.1 |
| 20260901180536 | 92 | 195 | 4.0 | 11.0 | 0.00 | 0.00 | 0.00 | 51 | 1015.2 |
| 20260901180239 | 92 | 169 | 4.0 | 11.0 | 0.00 | 0.00 | 0.00 | 53 | 1015.2 |
| 20260901175926 | 92 | 290 | 4.0 | 11.0 | 0.00 | 0.00 | 0.00 | 53 | 1015.2 |
| 20260901175628 | 92 | 249 | 4.0 | 14.0 | 0.00 | 0.00 | 0.00 | 52 | 1015.3 |
| 20260901175317 | 92 | 207 | 4.0 | 14.0 | 0.00 | 0.00 | 0.00 | 53 | 1015.3 |
| 20260901175019 | 92 | 264 | 3.0 | 14.0 | 0.00 | 0.00 | 0.00 | 53 | 1015.2 |
| 20260901174255 | 91 | 304 | 4.0 | 14.0 | 0.00 | 0.00 | 0.00 | 53 | 1015.2 |
| 20260901173945 | 91 | 41 | 4.0 | 14.0 | 0.00 | 0.00 | 0.00 | 55 | 1015.3 |
| 20260901173234 | 91 | 317 | 3.0 | 9.0 | 0.00 | 0.00 | 0.00 | 55 | 1015.2 |
| 20260901172935 | 91 | 284 | 2.0 | 9.0 | 0.00 | 0.00 | 0.00 | 55 | 1015.2 |
| 20260901172623 | 91 | 275 | 2.0 | 11.0 | 0.00 | 0.00 | 0.00 | 54 | 1015.2 |
| 20260901171906 | 90 | 125 | 3.0 | 11.0 | 0.00 | 0.00 | 0.00 | 55 | 1015.2 |
| 20260901171135 | 90 | 252 | 3.0 | 13.0 | 0.00 | 0.00 | 0.00 | 55 | 1015.4 |
| 20260901170823 | 90 | 281 | 4.0 | 13.0 | 0.00 | 0.00 | 0.00 | 55 | 1015.3 |
| 20260901165639 | 89 | 262 | 4.0 | 10.0 | 0.00 | 0.00 | 0.00 | 57 | 1015.4 |
| 20260901165327 | 89 | 110 | 3.0 | 10.0 | 0.00 | 0.00 | 0.00 | 58 | 1015.4 |
| 20260901165031 | 89 | 275 | 3.0 | 10.0 | 0.00 | 0.00 | 0.00 | 57 | 1015.5 |
| 20260901164253 | 88 | 306 | 2.0 | 10.0 | 0.00 | 0.00 | 0.00 | 59 | 1015.6 |
| 20260901163953 | 87 | 261 | 2.0 | 10.0 | 0.00 | 0.00 | 0.00 | 59 | 1015.7 |
| 20260901163648 | 87 | 187 | 2.0 | 10.0 | 0.00 | 0.00 | 0.00 | 59 | 1015.7 |
| 20260901163347 | 86 | 191 | 2.0 | 8.0 | 0.00 | 0.00 | 0.00 | 60 | 1015.7 |
| 20260901163049 | 86 | 256 | 2.0 | 8.0 | 0.00 | 0.00 | 0.00 | 62 | 1015.7 |
| 20260901162739 | 86 | 299 | 2.0 | 8.0 | 0.00 | 0.00 | 0.00 | 61 | 1015.7 |
| 20260901162425 | 85 | 277 | 2.0 | 8.0 | 0.00 | 0.00 | 0.00 | 63 | 1015.8 |
| 20260901162113 | 85 | 274 | 2.0 | 6.0 | 0.00 | 0.00 | 0.00 | 63 | 1015.8 |
| 20260901161811 | 84 | 224 | 1.0 | 6.0 | 0.00 | 0.00 | 0.00 | 63 | 1015.8 |
| 20260901161035 | 83 | 273 | 1.0 | 7.0 | 0.00 | 0.00 | 0.00 | 64 | 1015.8 |
| 20260901155858 | 82 | 215 | 2.0 | 7.0 | 0.00 | 0.00 | 0.00 | 65 | 1015.7 |
| 20260901155127 | 82 | 355 | 1.0 | 4.0 | 0.00 | 0.00 | 0.00 | 66 | 1015.8 |
| 20260901154408 | 81 | 217 | 1.0 | 4.0 | 0.00 | 0.00 | 0.00 | 66 | 1015.8 |
| 20260901154100 | 81 | 202 | 1.0 | 4.0 | 0.00 | 0.00 | 0.00 | 67 | 1015.8 |
| 20260901153747 | 81 | 347 | 1.0 | 4.0 | 0.00 | 0.00 | 0.00 | 67 | 1015.9 |
| 20260901153442 | 80 | 275 | 1.0 | 6.0 | 0.00 | 0.00 | 0.00 | 67 | 1016.1 |
| 20260901153130 | 80 | 207 | 1.0 | 6.0 | 0.00 | 0.00 | 0.00 | 67 | 1016.1 |
| 20260901152818 | 80 | 207 | 0.0 | 6.0 | 0.00 | 0.00 | 0.00 | 67 | 1016.2 |
| 20260901152057 | 79 | 274 | 1.0 | 6.0 | 0.00 | 0.00 | 0.00 | 67 | 1016.4 |
| 20260901151758 | 79 | 295 | 1.0 | 6.0 | 0.00 | 0.00 | 0.00 | 67 | 1016.4 |
| 20260901151452 | 79 | 281 | 0.0 | 5.0 | 0.00 | 0.00 | 0.00 | 67 | 1016.5 |
| 20260901151155 | 79 | 336 | 0.0 | 3.0 | 0.00 | 0.00 | 0.00 | 68 | 1016.5 |
| 20260901150854 | 79 | 252 | 0.0 | 5.0 | 0.00 | 0.00 | 0.00 | 68 | 1016.5 |
| 20260901145243 | 78 | 323 | 1.0 | 5.0 | 0.00 | 0.00 | 0.00 | 68 | 1016.5 |
| 20260901144937 | 78 | 286 | 0.0 | 3.0 | 0.00 | 0.00 | 0.00 | 68 | 1016.5 |
| 20260901144634 | 78 | 264 | 0.0 | 3.0 | 0.00 | 0.00 | 0.00 | 68 | 1016.4 |
| 20260901144325 | 78 | 234 | 0.0 | 3.0 | 0.00 | 0.00 | 0.00 | 68 | 1016.4 |
| 20260901144014 | 78 | 226 | 0.0 | 2.0 | 0.00 | 0.00 | 0.00 | 68 | 1016.4 |
| 20260901143234 | 77 | 215 | 0.0 | 6.0 | 0.00 | 0.00 | 0.00 | 68 | 1016.4 |
| 20260901142928 | 77 | 286 | 1.0 | 6.0 | 0.00 | 0.00 | 0.00 | 68 | 1016.4 |
| 20260901142620 | 77 | 288 | 2.0 | 6.0 | 0.00 | 0.00 | 0.00 | 68 | 1016.5 |
| 20260901142318 | 77 | 286 | 2.0 | 6.0 | 0.00 | 0.00 | 0.00 | 68 | 1016.5 |
| 20260901142015 | 77 | 29 | 2.0 | 6.0 | 0.00 | 0.00 | 0.00 | 68 | 1016.5 |
| 20260901141718 | 77 | 295 | 1.0 | 6.0 | 0.00 | 0.00 | 0.00 | 68 | 1016.6 |
| 20260901141422 | 77 | 277 | 1.0 | 3.0 | 0.00 | 0.00 | 0.00 | 68 | 1016.6 |
| 20260901141117 | 77 | 267 | 1.0 | 3.0 | 0.00 | 0.00 | 0.00 | 69 | 1016.6 |
| 20260901140808 | 77 | 277 | 1.0 | 6.0 | 0.00 | 0.00 | 0.00 | 68 | 1016.6 |
| 20260901140504 | 77 | 296 | 1.0 | 6.0 | 0.00 | 0.00 | 0.00 | 69 | 1016.5 |
| 20260901140203 | 77 | 36 | 1.0 | 6.0 | 0.00 | 0.00 | 0.00 | 69 | 1016.5 |
| 20260901135857 | 77 | 312 | 1.0 | 6.0 | 0.00 | 0.00 | 0.00 | 69 | 1016.5 |
| 20260901135130 | 76 | 292 | 1.0 | 6.0 | 0.00 | 0.00 | 0.00 | 69 | 1016.6 |
| 20260901134817 | 76 | 5 | 1.0 | 3.0 | 0.00 | 0.00 | 0.00 | 69 | 1016.5 |
| 20260901134518 | 76 | 184 | 1.0 | 3.0 | 0.00 | 0.00 | 0.00 | 69 | 1016.5 |
| 20260901134221 | 76 | 313 | 0.0 | 3.0 | 0.00 | 0.00 | 0.00 | 69 | 1016.5 |
| 20260901133908 | 76 | 306 | 0.0 | 2.0 | 0.00 | 0.00 | 0.00 | 70 | 1016.6 |
| 20260901133605 | 76 | 308 | 0.0 | 0.0 | 0.00 | 0.00 | 0.00 | 69 | 1016.6 |
| 20260901133257 | 76 | 294 | 0.0 | 3.0 | 0.00 | 0.00 | 0.00 | 69 | 1016.6 |
| 20260901132950 | 76 | 269 | 0.0 | 3.0 | 0.00 | 0.00 | 0.00 | 70 | 1016.6 |
| 20260901132650 | 75 | 282 | 0.0 | 3.0 | 0.00 | 0.00 | 0.00 | 70 | 1016.7 |
| 20260901132347 | 75 | 299 | 0.0 | 2.0 | 0.00 | 0.00 | 0.00 | 70 | 1016.6 |
| 20260901132043 | 75 | 310 | 0.0 | 1.0 | 0.00 | 0.00 | 0.00 | 70 | 1016.8 |
| 20260901131742 | 75 | 240 | 0.0 | 0.0 | 0.00 | 0.00 | 0.00 | 70 | 1016.7 |
| 20260901131445 | 75 | 232 | 0.0 | 3.0 | 0.00 | 0.00 | 0.00 | 70 | 1016.8 |
| 20260901131133 | 75 | 276 | 0.0 | 3.0 | 0.00 | 0.00 | 0.00 | 70 | 1016.8 |
| 20260901130830 | 75 | 286 | 1.0 | 6.0 | 0.00 | 0.00 | 0.00 | 71 | 1016.9 |
| 20260901130101 | 75 | 286 | 1.0 | 6.0 | 0.00 | 0.00 | 0.00 | 72 | 1016.9 |
| 20260901125750 | 74 | 327 | 1.0 | 6.0 | 0.00 | 0.00 | 0.00 | 73 | 1016.9 |
| 20260901125447 | 74 | 277 | 1.0 | 6.0 | 0.00 | 0.00 | 0.00 | 73 | 1017.0 |
| 20260901125137 | 74 | 303 | 1.0 | 6.0 | 0.00 | 0.00 | 0.00 | 74 | 1017.0 |
| 20260901124827 | 74 | 304 | 1.0 | 5.0 | 0.00 | 0.00 | 0.00 | 74 | 1017.0 |
| 20260901124516 | 74 | 284 | 2.0 | 5.0 | 0.00 | 0.00 | 0.00 | 74 | 1017.0 |
| 20260901124217 | 73 | 298 | 2.0 | 5.0 | 0.00 | 0.00 | 0.00 | 75 | 1017.0 |
| 20260901123909 | 73 | 317 | 2.0 | 5.0 | 0.00 | 0.00 | 0.00 | 74 | 1017.0 |
| 20260901123605 | 73 | 296 | 1.0 | 7.0 | 0.00 | 0.00 | 0.00 | 74 | 1016.8 |
| 20260901122834 | 73 | 307 | 2.0 | 7.0 | 0.00 | 0.00 | 0.00 | 75 | 1016.9 |
| 20260901122535 | 73 | 297 | 2.0 | 7.0 | 0.00 | 0.00 | 0.00 | 75 | 1017.0 |
| 20260901122225 | 73 | 285 | 1.0 | 7.0 | 0.00 | 0.00 | 0.00 | 75 | 1016.9 |
| 20260901121925 | 73 | 300 | 0.0 | 7.0 | 0.00 | 0.00 | 0.00 | 75 | 1016.9 |
| 20260901121629 | 72 | 313 | 0.0 | 1.0 | 0.00 | 0.00 | 0.00 | 74 | 1017.0 |
| 20260901121321 | 72 | 244 | 0.0 | 1.0 | 0.00 | 0.00 | 0.00 | 74 | 1016.9 |
| 20260901121008 | 72 | 170 | 0.0 | 0.0 | 0.00 | 0.00 | 0.00 | 74 | 1016.9 |
| 20260901120247 | 72 | 200 | 0.0 | 0.0 | 0.00 | 0.00 | 0.00 | 73 | 1016.9 |
| 20260901115055 | 72 | 205 | 0.0 | 0.0 | 0.00 | 0.00 | 0.00 | 73 | 1017.0 |
| 20260901114333 | 72 | 205 | 0.0 | 3.0 | 0.00 | 0.00 | 0.00 | 73 | 1016.8 |
| 20260901114032 | 72 | 175 | 0.0 | 3.0 | 0.00 | 0.00 | 0.00 | 73 | 1016.8 |
| 20260901113732 | 72 | 290 | 0.0 | 0.0 | 0.00 | 0.00 | 0.00 | 73 | 1016.9 |
| 20260901113425 | 71 | 290 | 0.0 | 2.0 | 0.00 | 0.00 | 0.00 | 73 | 1017.0 |
| 20260901113123 | 71 | 293 | 0.0 | 2.0 | 0.00 | 0.00 | 0.00 | 72 | 1017.1 |
| 20260901112810 | 71 | 252 | 0.0 | 0.0 | 0.00 | 0.00 | 0.00 | 72 | 1017.1 |
| 20260901112503 | 71 | 213 | 0.0 | 1.0 | 0.00 | 0.00 | 0.00 | 72 | 1017.1 |
| 20260901110859 | 71 | 261 | 0.0 | 0.0 | 0.00 | 0.00 | 0.00 | 71 | 1016.9 |
| 20260901110550 | 71 | 261 | 0.0 | 0.0 | 0.00 | 0.00 | 0.00 | 71 | 1017.0 |
| 20260901110239 | 71 | 261 | 0.0 | 0.0 | 0.00 | 0.00 | 0.00 | 71 | 1017.0 |
| 20260901105940 | 71 | 261 | 0.0 | 0.0 | 0.00 | 0.00 | 0.00 | 71 | 1016.9 |
| 20260901105631 | 71 | 261 | 0.0 | 0.0 | 0.00 | 0.00 | 0.00 | 71 | 1017.0 |
| 20260901105331 | 71 | 261 | 0.0 | 0.0 | 0.00 | 0.00 | 0.00 | 71 | 1016.9 |
| 20260901105035 | 71 | 261 | 0.0 | 0.0 | 0.00 | 0.00 | 0.00 | 71 | 1016.8 |
| 20260901104732 | 71 | 261 | 0.0 | 0.0 | 0.00 | 0.00 | 0.00 | 71 | 1016.8 |
| 20260901104433 | 71 | 261 | 0.0 | 0.0 | 0.00 | 0.00 | 0.00 | 71 | 1016.8 |
| 20260901104125 | 71 | 261 | 0.0 | 0.0 | 0.00 | 0.00 | 0.00 | 71 | 1016.9 |
| 20260901103816 | 71 | 267 | 0.0 | 0.0 | 0.00 | 0.00 | 0.00 | 71 | 1016.9 |
| 20260901102212 | 71 | 292 | 0.0 | 0.0 | 0.00 | 0.00 | 0.00 | 71 | 1016.8 |
| 20260901101432 | 71 | 296 | 0.0 | 1.0 | 0.00 | 0.00 | 0.00 | 71 | 1016.9 |
| 20260901101130 | 71 | 256 | 0.0 | 0.0 | 0.00 | 0.00 | 0.00 | 71 | 1016.8 |
| 20260901100827 | 71 | 256 | 0.0 | 1.0 | 0.00 | 0.00 | 0.00 | 71 | 1016.8 |
| 20260901100111 | 71 | 268 | 0.0 | 0.0 | 0.00 | 0.00 | 0.00 | 71 | 1016.8 |
| 20260901095808 | 71 | 268 | 0.0 | 0.0 | 0.00 | 0.00 | 0.00 | 71 | 1016.8 |
| 20260901095511 | 71 | 268 | 0.0 | 0.0 | 0.00 | 0.00 | 0.00 | 71 | 1016.8 |
| 20260901095159 | 71 | 271 | 0.0 | 0.0 | 0.00 | 0.00 | 0.00 | 71 | 1016.7 |
| 20260901094426 | 71 | 209 | 0.0 | 1.0 | 0.00 | 0.00 | 0.00 | 71 | 1016.6 |
| 20260901093707 | 71 | 222 | 0.0 | 0.0 | 0.00 | 0.00 | 0.00 | 71 | 1016.8 |
| 20260901093403 | 71 | 222 | 0.0 | 0.0 | 0.00 | 0.00 | 0.00 | 71 | 1016.8 |
| 20260901093051 | 71 | 222 | 0.0 | 0.0 | 0.00 | 0.00 | 0.00 | 71 | 1016.8 |
| 20260901092755 | 71 | 222 | 0.0 | 1.0 | 0.00 | 0.00 | 0.00 | 71 | 1016.9 |
| 20260901092443 | 71 | 242 | 0.0 | 0.0 | 0.00 | 0.00 | 0.00 | 71 | 1017.0 |
| 20260901092132 | 71 | 242 | 0.0 | 0.0 | 0.00 | 0.00 | 0.00 | 71 | 1016.9 |
| 20260901091825 | 71 | 242 | 0.0 | 0.0 | 0.00 | 0.00 | 0.00 | 71 | 1016.9 |
| 20260901091517 | 71 | 242 | 0.0 | 0.0 | 0.00 | 0.00 | 0.00 | 71 | 1016.9 |
| 20260901091209 | 71 | 242 | 0.0 | 0.0 | 0.00 | 0.00 | 0.00 | 71 | 1016.8 |
| 20260901090855 | 71 | 242 | 0.0 | 0.0 | 0.00 | 0.00 | 0.00 | 71 | 1016.9 |
| 20260901090547 | 71 | 242 | 0.0 | 0.0 | 0.00 | 0.00 | 0.00 | 71 | 1016.9 |
| 20260901090251 | 71 | 242 | 0.0 | 0.0 | 0.00 | 0.00 | 0.00 | 71 | 1016.9 |
| 20260901085516 | 71 | 242 | 0.0 | 0.0 | 0.00 | 0.00 | 0.00 | 71 | 1016.9 |
| 20260901085216 | 71 | 242 | 0.0 | 0.0 | 0.00 | 0.00 | 0.00 | 71 | 1016.9 |
| 20260901084906 | 71 | 242 | 0.0 | 0.0 | 0.00 | 0.00 | 0.00 | 71 | 1017.0 |
| 20260901084559 | 71 | 242 | 0.0 | 0.0 | 0.00 | 0.00 | 0.00 | 71 | 1017.0 |
| 20260901084255 | 71 | 242 | 0.0 | 0.0 | 0.00 | 0.00 | 0.00 | 71 | 1017.1 |
| 20260901083948 | 71 | 242 | 0.0 | 0.0 | 0.00 | 0.00 | 0.00 | 71 | 1017.0 |
| 20260901083649 | 71 | 242 | 0.0 | 0.0 | 0.00 | 0.00 | 0.00 | 71 | 1017.1 |
| 20260901083343 | 71 | 242 | 0.0 | 0.0 | 0.00 | 0.00 | 0.00 | 71 | 1017.0 |
| 20260901083046 | 71 | 242 | 0.0 | 0.0 | 0.00 | 0.00 | 0.00 | 71 | 1017.1 |
| 20260901082733 | 71 | 242 | 0.0 | 0.0 | 0.00 | 0.00 | 0.00 | 71 | 1017.1 |
| 20260901082438 | 71 | 242 | 0.0 | 0.0 | 0.00 | 0.00 | 0.00 | 71 | 1017.1 |
| 20260901082125 | 71 | 242 | 0.0 | 0.0 | 0.00 | 0.00 | 0.00 | 71 | 1017.1 |
| 20260901081812 | 71 | 242 | 0.0 | 0.0 | 0.00 | 0.00 | 0.00 | 71 | 1017.1 |
| 20260901081036 | 71 | 242 | 0.0 | 0.0 | 0.00 | 0.00 | 0.00 | 71 | 1017.1 |